Regional Weather Roundup
Issued by NWS

Home | Current Version | Previous Version | Graphics & Text | Print | Product List | Glossary On
Versions: 1 2 3 4 5 6 7 8 9 10 11 12 13 14 15 16 17 18 19 20 21 22 23 24 25 26 27 28 29 30 31 32 33 34 35 36 37 38 39 40 41 42 43 44 45 46 47 48 49 50
670
ASUS43 KLOT 241209
RWRIL

ILLINOIS REGIONAL WEATHER ROUNDUP
NATIONAL WEATHER SERVICE CHICAGO/ROMEOVILLE IL
700 AM CDT SAT JUN 24 2017

NOTE: "FAIR" INDICATES FEW OR NO CLOUDS BELOW 12,000 FEET WITH NO
SIGNIFICANT WEATHER AND/OR OBSTRUCTIONS TO VISIBILITY.

* THESE STATIONS ARE NOT UNDER NWS QUALITY CONTROL. THEY ALSO MAY NOT
  REPORT WEATHER SUCH AS PRECIPITATION OR FOG.

ILZ001-002-007-009-015-016-024-241300-
NORTHWEST ILLINOIS

CITY           SKY/WX    TMP DP  RH WIND       PRES   REMARKS
MOLINE         SUNNY     62  51  67 NW14      30.00R
6HR MIN TEMP:  61; 6HR MAX TEMP:  65;

STERLING*      SUNNY     61  55  81 W12       29.97R
SAVANNA*       SUNNY     61  53  75 NW12G18   29.98R
$$

ILZ003-004-008-010-011-017-018-241300-
NORTH CENTRAL ILLINOIS

CITY           SKY/WX    TMP DP  RH WIND       PRES   REMARKS
ROCKFORD       SUNNY     63  54  72 NW12      29.95R
6HR MIN TEMP:  60; 6HR MAX TEMP:  63;

FREEPORT*      SUNNY     59  53  79 NW12      29.97R
ROCHELLE*      SUNNY     59  56  88 W9        29.96R
DE KALB*       SUNNY     60  55  84 W10       29.95R
PERU*          SUNNY     60  54  82 W10G16    29.97R
$$

ILZ005-006-012>014-019>023-241300-
NORTHEAST ILLINOIS

CITY           SKY/WX    TMP DP  RH WIND       PRES   REMARKS
CHICAGO-OHARE  MOSUNNY   63  55  75 W10       29.91R
6HR MIN TEMP:  61; 6HR MAX TEMP:  66;

CHICAGO-MIDWAY MOSUNNY   64  56  75 W10       29.91R
6HR MIN TEMP:  62; 6HR MAX TEMP:  68;

AURORA         MOSUNNY   61  57  87 W9        29.94R
6HR MIN TEMP:  58; 6HR MAX TEMP:  61;

LANSING*       SUNNY     63  55  75 W8        29.92S
JOLIET*        SUNNY     63  58  81 W7        29.94R
WAUKEGAN       SUNNY     63  56  78 VRB7      29.89S
6HR MIN TEMP:  60; 6HR MAX TEMP:  63;

DUPAGE AIRPORT MOSUNNY   62  57  83 W9        29.92R
6HR MIN TEMP:  59; 6HR MAX TEMP:  63;

WHEELING       MOSUNNY   63  57  81 W8        29.92R
6HR MIN TEMP:  61; 6HR MAX TEMP:  65;

MORRIS*        SUNNY     61  57  87 W12       29.93S
ROMEOVILLE*    MOSUNNY   63  54  74 NW12      29.93R
NORTHERLY ISL    N/A     64  54  69 W7          N/A
$$

LMZ740>746-241300-
SOUTHERN LAKE MICHIGAN

STATION/POSITION SKY/WX   TEMP    WIND        PRES    VSBY  WAVE
                          AIR SEA DIR/SP/G                  HT/PER
                          (F)     (DEG/KT/KT) (MB)    (MI)  (FT/S)
SOUTHERN BUOY              62 61  310/ 12/ 14 1011.1          2/ 4
WILMETTE HARBOR            63 64  270/ 12/ 16   N/A           1/ 2
HARRISON CRIB              64     290/ 13/ 14   N/A
BURNHAM HARBOR             65                   N/A
CALUMET HARBOR             64     260/  4/  7 1012.3R
BURNS HARBOR               65     280/ 12/ 13 1013.2R
MICHIGAN CITY              65     280/ 15/ 17   N/A
MICHIGAN CITY 6N           65 67  300/ 14/ 17   N/A           3/ 4
ST. JOSEPH                 65 68  330/ 16/ 19 1012.2          4/ 4
$$

ILZ025>027-034>036-040-047-049-050-058-095>099-241300-
WEST-CENTRAL ILLINOIS

CITY           SKY/WX    TMP DP  RH WIND       PRES   REMARKS
QUINCY         SUNNY     61  53  75 W7        30.07R
GALESBURG*     SUNNY     59  54  84 W9        30.03R
MACOMB*        SUNNY     59  55  85 W7        30.06R
JACKSONVILLE*  SUNNY     60  56  85 W6        30.06R
PITTSFIELD*    SUNNY     62  56  80 W5        30.08R
$$

ILZ028>032-037-038-041>044-048-051>054-059>061-241300-
CENTRAL ILLINOIS

CITY           SKY/WX    TMP DP  RH WIND       PRES   REMARKS
PONTIAC        SUNNY     62  60  93 W8        29.98R
BLOOMINGTON    SUNNY     61  56  83 W8        30.00R
DECATUR        SUNNY     63  56  78 W9        30.02R
PEORIA         MOSUNNY   61  56  83 W8        30.01R
6HR MIN TEMP:  60; 6HR MAX TEMP:  65;

LACON*         MOSUNNY   62  55  79 W9        29.98R
LINCOLN*       SUNNY     63  57  80 CALM      30.01S
SPRINGFIELD    SUNNY     63  57  81 W7        30.03R
6HR MIN TEMP:  59; 6HR MAX TEMP:  63;

TAYLORVILLE    SUNNY     62  56  81 W6        30.04R
6HR MIN TEMP:  59; 6HR MAX TEMP:  64;

$$

ILZ033-039-045-046-055>057-062-063-241300-
EAST-CENTRAL ILLINOIS

CITY           SKY/WX    TMP DP  RH WIND       PRES   REMARKS
CHAMPAIGN      SUNNY     61  56  83 W8        29.99R
RANTOUL*       SUNNY     63  58  85 W8        29.98R
MATTOON        MOSUNNY   63  59  87 W12       30.00R
PARIS*         SUNNY     61  58  90 W8        30.00R
$$

ILZ079-100>102-241300-
SOUTHWEST ILLINOIS

CITY           SKY/WX    TMP DP  RH WIND       PRES   REMARKS
ALTON          SUNNY     63  57  82 NW8       30.07R
BELLEVILLE     MOSUNNY   66  57  72 W7        30.08R
CAHOKIA*       MOSUNNY   67  56  67 W5        30.07R
SPARTA*        SUNNY     63  56  78 W5        30.09R
$$

ILZ064>066-069>071-074>076-080>082-084>086-088>090-092>094-241300-
SOUTH-CENTRAL ILLINOIS

CITY           SKY/WX    TMP DP  RH WIND       PRES   REMARKS
CARBONDALE     SUNNY     65  60  84 NW9       30.06R
6HR MIN TEMP:  61; 6HR MAX TEMP:  67;

CAIRO*         MOSUNNY   67  60  77 NW7       30.06R
EFFINGHAM*     MOSUNNY   63  60  91 SW5       30.04R
MARION         MOSUNNY   66  61  82 NW8       30.06R
MT. VERNON     SUNNY     64  59  83 VRB3      30.06R
CENTRALIA*     SUNNY     64  60  87 W6        30.05R
SALEM*         SUNNY     65  58  79 W6        30.05R
METROPOLIS*    SUNNY     66  61  83 NW3       30.06R
$$

ILZ067-068-072-073-078-083-087-091-241300-
SOUTHEAST ILLINOIS

CITY           SKY/WX    TMP DP  RH WIND       PRES   REMARKS
LAWRENCEVILLE  SUNNY     65  59  81 W8        30.01R
FLORA*         SUNNY     66  58  75 W7        30.04R
FAIRFIELD*     SUNNY     64  58  81 CALM      30.04R
HARRISBURG*    SUNNY     66  62  86 NW6       30.05R
ROBINSON*      SUNNY     62  59  88 W6        30.02R
CARMI*         CLOUDY    65  60  85 NW7       30.03R
$$

ABBREVIATIONS USED IN REMARKS
   TC - TEMPERATURE IN CELSIUS
  WCI - WIND CHILL INDEX
   HX - HEAT INDEX
  VSB - VISIBILITY
$$





USA.gov is the U.S. government's official web portal to all federal, state and local government web resources and services.